WZZ6632 EPWA-EKCH

Flight info

Callsign WZZ6632
Flight time 1h 7m
Altitude 30000
Route EPWA/29 N0436F300 OLIL6G OLILA L621 LUSID DCT ROE M743 TIDVU TIDV3A EKCH/04L
Aircraft A320/M-SDE3FGHIRWY/LB1

Departure

Time 2026-04-26 18:42
Airport Warsaw Chopin Airport (EPWA)

Arrival

Time 2026-04-26 19:49
Airport Copenhagen Kastrup Airport (EKCH)
Time Latitude Longitude Altitude Speed Heading
2026-04-26 18:03 52.17406 20.96765 336 ft 0 kts 92°
2026-04-26 18:25 52.17407 20.96743 332 ft 2 kts 94°
2026-04-26 18:25 52.17408 20.96716 334 ft 2 kts 93°
2026-04-26 18:25 52.17409 20.96689 332 ft 2 kts 95°
2026-04-26 18:25 52.17410 20.96662 332 ft 2 kts 97°
2026-04-26 18:26 52.17413 20.96636 332 ft 2 kts 107°
2026-04-26 18:26 52.17420 20.96611 333 ft 2 kts 144°
2026-04-26 18:26 52.17426 20.96604 333 ft 0 kts 150°
2026-04-26 18:26 52.17421 20.96609 333 ft 2 kts 151°
2026-04-26 18:27 52.17398 20.96628 335 ft 5 kts 155°
2026-04-26 18:27 52.17350 20.96658 332 ft 8 kts 162°
2026-04-26 18:27 52.17347 20.96660 332 ft 0 kts 154°
2026-04-26 18:31 52.17344 20.96663 332 ft 2 kts 151°
2026-04-26 18:32 52.17319 20.96687 334 ft 7 kts 148°
2026-04-26 18:32 52.17264 20.96744 334 ft 13 kts 147°
2026-04-26 18:32 52.17168 20.96780 332 ft 17 kts 203°
2026-04-26 18:32 52.17117 20.96658 335 ft 0 kts 239°
2026-04-26 18:33 52.17111 20.96656 334 ft 3 kts 200°
2026-04-26 18:33 52.17074 20.96674 335 ft 9 kts 152°
2026-04-26 18:33 52.17000 20.96740 335 ft 15 kts 151°
2026-04-26 18:33 52.16887 20.96842 332 ft 22 kts 151°
2026-04-26 18:34 52.16761 20.96954 335 ft 0 kts 151°
2026-04-26 18:35 52.16755 20.96960 336 ft 4 kts 151°
2026-04-26 18:35 52.16709 20.97000 334 ft 11 kts 152°
2026-04-26 18:35 52.16643 20.97105 334 ft 17 kts 112°
2026-04-26 18:36 52.16590 20.97314 334 ft 23 kts 112°
2026-04-26 18:36 52.16517 20.97585 334 ft 29 kts 114°
2026-04-26 18:36 52.16428 20.97917 333 ft 33 kts 113°
2026-04-26 18:36 52.16393 20.98042 334 ft 0 kts 115°
2026-04-26 18:37 52.16388 20.98060 333 ft 5 kts 115°
2026-04-26 18:38 52.16362 20.98143 334 ft 12 kts 118°
2026-04-26 18:38 52.16311 20.98286 333 ft 17 kts 132°
2026-04-26 18:38 52.16233 20.98318 334 ft 0 kts 198°
2026-04-26 18:39 52.16227 20.98314 336 ft 3 kts 200°
2026-04-26 18:39 52.16185 20.98288 335 ft 10 kts 201°
2026-04-26 18:39 52.16164 20.98178 335 ft 12 kts 295°
2026-04-26 18:40 52.16203 20.98043 334 ft 6 kts 295°
2026-04-26 18:40 52.16204 20.98042 334 ft 0 kts 295°
2026-04-26 18:41 52.16247 20.97895 334 ft 44 kts 296°
2026-04-26 18:41 52.16470 20.97115 336 ft 104 kts 294°
2026-04-26 18:41 52.16858 20.95796 346 ft 152 kts 300°
2026-04-26 18:41 52.17325 20.94135 674 ft 171 kts 296°
2026-04-26 18:42 52.17860 20.92252 1025 ft 198 kts 299°
2026-04-26 18:42 52.18507 20.90196 1431 ft 210 kts 302°
2026-04-26 18:42 52.19383 20.88170 1908 ft 226 kts 324°
2026-04-26 18:42 52.20792 20.87025 2580 ft 229 kts 342°
2026-04-26 18:43 52.22308 20.86189 3246 ft 230 kts 339°
2026-04-26 18:43 52.23660 20.84817 3904 ft 234 kts 315°
2026-04-26 18:43 52.24649 20.82692 4553 ft 236 kts 312°
2026-04-26 18:43 52.25759 20.80730 5291 ft 235 kts 321°
2026-04-26 18:44 52.27214 20.79535 6099 ft 238 kts 346°
2026-04-26 18:44 52.28865 20.79119 6900 ft 241 kts 350°
2026-04-26 18:44 52.30530 20.78666 7700 ft 244 kts 348°
2026-04-26 18:44 52.32154 20.78005 8494 ft 245 kts 335°
2026-04-26 18:45 52.33605 20.76508 9305 ft 248 kts 326°
2026-04-26 18:45 52.35018 20.74862 10147 ft 251 kts 325°
2026-04-26 18:45 52.36439 20.73192 10904 ft 252 kts 325°
2026-04-26 18:45 52.37861 20.71515 11672 ft 252 kts 325°
2026-04-26 18:46 52.39296 20.69824 12451 ft 257 kts 326°
2026-04-26 18:46 52.40785 20.68073 13001 ft 270 kts 326°
2026-04-26 18:46 52.42341 20.66239 13556 ft 281 kts 326°
2026-04-26 18:46 52.43960 20.64331 14107 ft 292 kts 326°
2026-04-26 18:47 52.45640 20.62349 14592 ft 302 kts 325°
2026-04-26 18:47 52.47375 20.60300 15086 ft 312 kts 325°
2026-04-26 18:47 52.49160 20.58190 15586 ft 321 kts 325°
2026-04-26 18:47 52.50990 20.56024 16091 ft 328 kts 325°
2026-04-26 18:48 52.52857 20.53816 16655 ft 333 kts 325°
2026-04-26 18:48 52.54741 20.51582 17313 ft 335 kts 325°
2026-04-26 18:48 52.56641 20.49321 17975 ft 338 kts 325°
2026-04-26 18:48 52.58548 20.47049 18653 ft 339 kts 325°
2026-04-26 18:49 52.60463 20.44766 19249 ft 341 kts 325°
2026-04-26 18:49 52.62387 20.42472 19851 ft 343 kts 324°
2026-04-26 18:49 52.64328 20.40157 20470 ft 346 kts 324°
2026-04-26 18:49 52.66255 20.37769 21095 ft 348 kts 319°
2026-04-26 18:50 52.67867 20.34773 21742 ft 351 kts 311°
2026-04-26 18:50 52.69388 20.31620 22418 ft 352 kts 311°
2026-04-26 18:50 52.70900 20.28449 23073 ft 352 kts 311°
2026-04-26 18:50 52.72384 20.25311 23753 ft 352 kts 310°
2026-04-26 18:51 52.73885 20.22128 24348 ft 351 kts 310°
2026-04-26 18:51 52.75386 20.18949 24944 ft 351 kts 310°
2026-04-26 18:51 52.76888 20.15779 25547 ft 350 kts 310°
2026-04-26 18:51 52.78386 20.12615 26160 ft 349 kts 310°
2026-04-26 18:52 52.79875 20.09459 26796 ft 348 kts 310°
2026-04-26 18:52 52.81358 20.06313 27444 ft 345 kts 310°
2026-04-26 18:52 52.82826 20.03192 28111 ft 342 kts 309°
2026-04-26 18:52 52.84274 20.00107 28779 ft 337 kts 309°
2026-04-26 18:53 52.85702 19.97062 29472 ft 332 kts 309°
2026-04-26 18:53 52.87110 19.94060 30095 ft 330 kts 309°
2026-04-26 18:53 52.88531 19.91029 30252 ft 338 kts 309°
2026-04-26 18:53 52.89999 19.87903 30269 ft 349 kts 309°
2026-04-26 18:54 52.91514 19.84676 30275 ft 360 kts 309°
2026-04-26 18:54 52.93072 19.81342 30276 ft 371 kts 309°
2026-04-26 18:54 52.96305 19.74385 30275 ft 389 kts 308°
2026-04-26 18:55 52.99634 19.67212 30269 ft 394 kts 308°
2026-04-26 18:55 53.02980 19.59998 30272 ft 395 kts 308°
2026-04-26 18:56 53.06321 19.52755 30268 ft 395 kts 308°
2026-04-26 18:56 53.09636 19.45524 30270 ft 396 kts 308°
2026-04-26 18:57 53.11870 19.40658 30268 ft 396 kts 308°
2026-04-26 18:57 53.16324 19.30959 30269 ft 396 kts 308°
2026-04-26 18:58 53.19666 19.23643 30277 ft 397 kts 308°
2026-04-26 18:58 53.23004 19.16305 30266 ft 397 kts 308°
2026-04-26 18:59 53.26336 19.08952 30264 ft 397 kts 308°
2026-04-26 18:59 53.29675 19.01566 30254 ft 400 kts 308°
2026-04-26 19:00 53.33037 18.94133 30254 ft 402 kts 308°
2026-04-26 19:00 53.36408 18.86650 30258 ft 403 kts 307°
2026-04-26 19:01 53.39778 18.79130 30250 ft 404 kts 307°
2026-04-26 19:01 53.43149 18.71581 30265 ft 405 kts 307°
2026-04-26 19:02 53.46517 18.64025 30260 ft 405 kts 307°
2026-04-26 19:02 53.48757 18.59004 30261 ft 405 kts 307°
2026-04-26 19:03 53.53246 18.48882 30268 ft 406 kts 307°
2026-04-26 19:03 53.56537 18.41168 30256 ft 406 kts 306°
2026-04-26 19:04 53.59916 18.33542 30267 ft 406 kts 307°
2026-04-26 19:04 53.63329 18.25947 30272 ft 407 kts 307°
2026-04-26 19:05 53.68389 18.14450 30274 ft 407 kts 307°
2026-04-26 19:06 53.71171 18.08040 30272 ft 408 kts 307°
2026-04-26 19:06 53.74521 18.00315 30279 ft 408 kts 307°
2026-04-26 19:07 53.77880 17.92572 30272 ft 409 kts 307°
2026-04-26 19:07 53.81238 17.84801 30278 ft 409 kts 306°
2026-04-26 19:08 53.84594 17.76999 30288 ft 410 kts 306°
2026-04-26 19:08 53.87944 17.69187 30275 ft 411 kts 306°
2026-04-26 19:09 53.91302 17.61342 30286 ft 411 kts 306°
2026-04-26 19:09 53.94662 17.53474 30288 ft 412 kts 306°
2026-04-26 19:10 53.98000 17.45641 30286 ft 413 kts 306°
2026-04-26 19:10 54.01353 17.37718 30283 ft 413 kts 306°
2026-04-26 19:11 54.04708 17.29775 30287 ft 413 kts 306°
2026-04-26 19:11 54.08061 17.21814 30280 ft 414 kts 306°
2026-04-26 19:12 54.11411 17.13835 30279 ft 414 kts 306°
2026-04-26 19:12 54.14763 17.05822 30278 ft 415 kts 306°
2026-04-26 19:13 54.18110 16.97786 30276 ft 415 kts 306°
2026-04-26 19:13 54.21454 16.89734 30276 ft 416 kts 306°
2026-04-26 19:14 54.24804 16.81661 30277 ft 416 kts 306°
2026-04-26 19:14 54.28152 16.73568 30271 ft 417 kts 306°
2026-04-26 19:15 54.31473 16.65514 30268 ft 417 kts 306°
2026-04-26 19:15 54.34818 16.57369 30272 ft 418 kts 306°
2026-04-26 19:16 54.38162 16.49209 30268 ft 418 kts 306°
2026-04-26 19:16 54.41500 16.41032 30266 ft 419 kts 305°
2026-04-26 19:17 54.44834 16.32823 30268 ft 419 kts 305°
2026-04-26 19:17 54.48170 16.24597 30270 ft 420 kts 305°
2026-04-26 19:18 54.51503 16.16361 30265 ft 420 kts 305°
2026-04-26 19:18 54.54831 16.08089 30269 ft 420 kts 305°
2026-04-26 19:19 54.58153 15.99798 30269 ft 421 kts 305°
2026-04-26 19:19 54.61476 15.91480 30267 ft 421 kts 305°
2026-04-26 19:20 54.64795 15.83153 30270 ft 421 kts 305°
2026-04-26 19:20 54.68112 15.74799 30268 ft 422 kts 305°
2026-04-26 19:21 54.71404 15.66483 30272 ft 422 kts 305°
2026-04-26 19:21 54.74713 15.58098 30269 ft 422 kts 305°
2026-04-26 19:21 54.76371 15.53891 30114 ft 423 kts 305°
2026-04-26 19:22 54.78032 15.49668 29822 ft 424 kts 305°
2026-04-26 19:22 54.79684 15.45446 29536 ft 424 kts 305°
2026-04-26 19:22 54.81339 15.41207 29289 ft 425 kts 305°
2026-04-26 19:23 54.84656 15.32711 29286 ft 426 kts 305°
2026-04-26 19:23 54.87973 15.24196 29285 ft 426 kts 305°
2026-04-26 19:24 54.91283 15.15656 29278 ft 426 kts 305°
2026-04-26 19:24 54.96245 15.02819 29275 ft 426 kts 305°
2026-04-26 19:25 54.98954 14.95783 29277 ft 417 kts 304°
2026-04-26 19:25 55.01102 14.90180 29165 ft 416 kts 304°
2026-04-26 19:25 55.02709 14.85981 28760 ft 416 kts 304°
2026-04-26 19:26 55.04309 14.81789 28330 ft 416 kts 304°
2026-04-26 19:26 55.05893 14.77635 27931 ft 417 kts 304°
2026-04-26 19:26 55.07337 14.73248 27533 ft 419 kts 298°
2026-04-26 19:26 55.08662 14.68710 27123 ft 420 kts 298°
2026-04-26 19:27 55.09998 14.64166 26744 ft 421 kts 298°
2026-04-26 19:27 55.11341 14.59605 26371 ft 422 kts 298°
2026-04-26 19:27 55.12683 14.55037 25996 ft 423 kts 298°
2026-04-26 19:27 55.14027 14.50449 25624 ft 424 kts 298°
2026-04-26 19:28 55.15368 14.45858 25256 ft 425 kts 298°
2026-04-26 19:28 55.16713 14.41244 24896 ft 426 kts 298°
2026-04-26 19:28 55.18058 14.36619 24536 ft 426 kts 298°
2026-04-26 19:28 55.19393 14.32006 24181 ft 424 kts 298°
2026-04-26 19:29 55.20722 14.27409 23820 ft 422 kts 298°
2026-04-26 19:29 55.22044 14.22837 23124 ft 418 kts 298°
2026-04-26 19:29 55.23349 14.18311 22443 ft 414 kts 298°
2026-04-26 19:29 55.24641 14.13821 21770 ft 411 kts 298°
2026-04-26 19:30 55.25921 14.09369 21132 ft 407 kts 298°
2026-04-26 19:30 55.27186 14.04958 20493 ft 404 kts 298°
2026-04-26 19:30 55.28441 14.00580 19871 ft 400 kts 298°
2026-04-26 19:30 55.29268 13.97693 19467 ft 398 kts 298°
2026-04-26 19:31 55.30915 13.91914 18647 ft 394 kts 298°
2026-04-26 19:31 55.31172 13.91011 18530 ft 394 kts 298°
2026-04-26 19:31 55.32427 13.86607 17820 ft 390 kts 298°
2026-04-26 19:31 55.33634 13.82354 17161 ft 387 kts 298°
2026-04-26 19:32 55.34823 13.78159 16512 ft 380 kts 298°
2026-04-26 19:32 55.35992 13.74029 15870 ft 374 kts 298°
2026-04-26 19:32 55.37119 13.70036 15240 ft 355 kts 298°
2026-04-26 19:32 55.38180 13.66254 14628 ft 336 kts 298°
2026-04-26 19:33 55.39186 13.62656 14023 ft 320 kts 298°
2026-04-26 19:33 55.40148 13.59218 13351 ft 308 kts 298°
2026-04-26 19:33 55.41061 13.55880 12690 ft 298 kts 294°
2026-04-26 19:33 55.41705 13.52451 12039 ft 292 kts 290°
2026-04-26 19:34 55.42292 13.49064 11400 ft 286 kts 289°
2026-04-26 19:34 55.42865 13.45742 10786 ft 282 kts 289°
2026-04-26 19:34 55.43430 13.42469 10304 ft 273 kts 289°
2026-04-26 19:34 55.43957 13.39393 10298 ft 256 kts 289°
2026-04-26 19:35 55.44472 13.36404 10150 ft 254 kts 290°
2026-04-26 19:35 55.44985 13.33439 9880 ft 252 kts 290°
2026-04-26 19:35 55.45472 13.30477 9607 ft 252 kts 284°
2026-04-26 19:35 55.45579 13.27383 9338 ft 256 kts 269°
2026-04-26 19:36 55.45172 13.24320 9068 ft 260 kts 252°
2026-04-26 19:36 55.44676 13.22390 8864 ft 262 kts 250°
2026-04-26 19:36 55.43654 13.18525 8341 ft 259 kts 250°
2026-04-26 19:36 55.42897 13.15661 7952 ft 257 kts 250°
2026-04-26 19:37 55.42144 13.12818 7569 ft 255 kts 250°
2026-04-26 19:37 55.41397 13.09997 7191 ft 253 kts 250°
2026-04-26 19:37 55.40666 13.07235 6823 ft 252 kts 249°
2026-04-26 19:37 55.39959 13.04397 6426 ft 247 kts 258°
2026-04-26 19:38 55.39785 13.01493 6029 ft 241 kts 273°
2026-04-26 19:38 55.39832 12.98570 5634 ft 236 kts 275°
2026-04-26 19:38 55.39907 12.95719 5244 ft 230 kts 275°
2026-04-26 19:38 55.39983 12.92981 5013 ft 217 kts 275°
2026-04-26 19:39 55.40054 12.90416 5012 ft 207 kts 275°
2026-04-26 19:39 55.40125 12.87886 5013 ft 207 kts 275°
2026-04-26 19:39 55.40197 12.85348 5015 ft 213 kts 275°
2026-04-26 19:39 55.40284 12.82541 5017 ft 241 kts 275°
2026-04-26 19:40 55.40382 12.79539 5014 ft 248 kts 275°
2026-04-26 19:40 55.40482 12.76504 5011 ft 249 kts 275°
2026-04-26 19:40 55.40584 12.73467 5011 ft 249 kts 275°
2026-04-26 19:40 55.40684 12.70427 5011 ft 249 kts 275°
2026-04-26 19:41 55.40786 12.67384 5010 ft 249 kts 275°
2026-04-26 19:41 55.40886 12.64360 5007 ft 243 kts 275°
2026-04-26 19:41 55.40979 12.61481 5003 ft 230 kts 275°
2026-04-26 19:41 55.41038 12.59630 4803 ft 229 kts 275°
2026-04-26 19:42 55.41164 12.55938 4266 ft 222 kts 275°
2026-04-26 19:42 55.41263 12.53295 3982 ft 213 kts 275°
2026-04-26 19:42 55.41364 12.50734 3598 ft 208 kts 275°
2026-04-26 19:42 55.41472 12.48219 3197 ft 204 kts 275°
2026-04-26 19:43 55.41589 12.45752 2813 ft 199 kts 275°
2026-04-26 19:43 55.41706 12.43380 2423 ft 195 kts 275°
2026-04-26 19:43 55.41944 12.41073 2044 ft 190 kts 294°
2026-04-26 19:43 55.42748 12.39361 2007 ft 182 kts 323°
2026-04-26 19:44 55.43927 12.38592 2011 ft 184 kts 353°
2026-04-26 19:44 55.45190 12.38987 2020 ft 188 kts 24°
2026-04-26 19:44 55.46177 12.40307 2045 ft 166 kts 38°
2026-04-26 19:44 55.47001 12.41574 2019 ft 152 kts 38°
2026-04-26 19:45 55.47787 12.42778 2007 ft 148 kts 38°
2026-04-26 19:45 55.48558 12.43959 2009 ft 146 kts 38°
2026-04-26 19:45 55.49326 12.45135 2010 ft 146 kts 38°
2026-04-26 19:45 55.50091 12.46308 2012 ft 146 kts 38°
2026-04-26 19:46 55.50855 12.47479 2011 ft 145 kts 38°
2026-04-26 19:46 55.51618 12.48651 1964 ft 146 kts 38°
2026-04-26 19:46 55.52382 12.49825 1842 ft 145 kts 38°
2026-04-26 19:46 55.53141 12.50991 1662 ft 144 kts 39°
2026-04-26 19:47 55.53896 12.52152 1472 ft 143 kts 39°
2026-04-26 19:47 55.54392 12.52915 1343 ft 143 kts 39°
2026-04-26 19:47 55.55392 12.54452 1084 ft 142 kts 40°
2026-04-26 19:47 55.56135 12.55597 873 ft 141 kts 40°
2026-04-26 19:48 55.56859 12.56714 688 ft 139 kts 41°
2026-04-26 19:48 55.57586 12.57824 478 ft 137 kts 41°
2026-04-26 19:48 55.58301 12.58937 249 ft 136 kts 43°
2026-04-26 19:48 55.59009 12.60037 124 ft 136 kts 41°
2026-04-26 19:49 55.59723 12.61136 59 ft 136 kts 43°
2026-04-26 19:49 55.60423 12.62247 36 ft 132 kts 43°
2026-04-26 19:49 55.61026 12.63184 24 ft 94 kts 40°
2026-04-26 19:49 55.61388 12.63740 23 ft 44 kts 40°
2026-04-26 19:50 55.61478 12.63875 24 ft 0 kts 40°
2026-04-26 19:51 55.61491 12.63893 24 ft 7 kts 40°
2026-04-26 19:51 55.61530 12.63831 24 ft 12 kts 316°
2026-04-26 19:51 55.61576 12.63830 23 ft 6 kts
2026-04-26 19:51 55.61653 12.63837 23 ft 15 kts
2026-04-26 19:52 55.61693 12.63796 23 ft 2 kts 220°